TimeMST,TemperatureF,Dew PointF,Humidity,Sea Level PressureIn,VisibilityMPH,Wind Direction,Wind SpeedMPH,Gust SpeedMPH,PrecipitationIn,Events,Conditions,WindDirDegrees,DateUTC
12:15 AM,-5.8,-13.0,71,30.40,10.0,ESE,4.6,-,N/A,,Clear,110,2014-01-24 07:15:00
12:35 AM,-7.6,-14.8,71,30.39,10.0,SE,5.8,-,N/A,,Clear,130,2014-01-24 07:35:00
12:55 AM,-4.0,-13.0,65,30.39,10.0,SE,5.8,-,N/A,,Clear,140,2014-01-24 07:55:00
1:15 AM,-5.8,-13.0,71,30.40,10.0,SE,4.6,-,N/A,,Clear,130,2014-01-24 08:15:00
1:35 AM,-5.8,-14.8,65,30.40,10.0,SE,6.9,-,N/A,,Clear,130,2014-01-24 08:35:00
1:55 AM,-7.6,-14.8,71,30.40,10.0,SE,6.9,-,N/A,,Clear,130,2014-01-24 08:55:00
2:15 AM,-5.8,-13.0,71,30.41,10.0,SE,6.9,-,N/A,,Clear,130,2014-01-24 09:15:00
2:35 AM,-5.8,-14.8,65,30.42,10.0,Calm,Calm,-,N/A,,Clear,0,2014-01-24 09:35:00
2:55 AM,-5.8,-13.0,71,30.41,10.0,Calm,Calm,-,N/A,,Clear,0,2014-01-24 09:55:00
3:14 AM,-5.8,-13.0,71,30.41,10.0,Calm,Calm,-,N/A,,Clear,0,2014-01-24 10:14:00
3:35 AM,-4.0,-13.0,65,30.40,10.0,SE,4.6,-,N/A,,Clear,130,2014-01-24 10:35:00
3:55 AM,-5.8,-14.8,65,30.40,10.0,SE,4.6,-,N/A,,Clear,130,2014-01-24 10:55:00
4:15 AM,-5.8,-13.0,71,30.40,10.0,Calm,Calm,-,N/A,,Clear,0,2014-01-24 11:15:00
4:34 AM,-4.0,-13.0,65,30.40,10.0,ESE,4.6,-,N/A,,Clear,120,2014-01-24 11:34:00
4:54 AM,-4.0,-13.0,65,30.39,10.0,SE,6.9,-,N/A,,Clear,130,2014-01-24 11:54:00
5:15 AM,-7.6,-16.6,65,30.40,10.0,Calm,Calm,-,N/A,,Clear,0,2014-01-24 12:15:00
5:35 AM,-7.6,-14.8,71,30.41,10.0,Calm,Calm,-,N/A,,Clear,0,2014-01-24 12:35:00
5:55 AM,-5.8,-14.8,65,30.41,10.0,Calm,Calm,-,N/A,,Clear,0,2014-01-24 12:55:00
6:15 AM,-5.8,-14.8,65,30.41,10.0,SE,8.1,-,N/A,,Clear,130,2014-01-24 13:15:00
6:35 AM,-5.8,-14.8,65,30.42,10.0,NNE,3.5,9.2,N/A,,Clear,30,2014-01-24 13:35:00
6:55 AM,-5.8,-16.6,60,30.42,10.0,ESE,3.5,-,N/A,,Clear,110,2014-01-24 13:55:00
7:15 AM,-0.4,-13.0,55,30.42,10.0,SE,9.2,-,N/A,,Clear,130,2014-01-24 14:15:00
7:35 AM,-2.2,-13.0,60,30.42,10.0,SE,8.1,-,N/A,,Clear,130,2014-01-24 14:35:00
7:55 AM,-0.4,-9.4,66,30.43,10.0,SE,8.1,-,N/A,,Clear,130,2014-01-24 14:55:00
8:14 AM,1.4,-9.4,61,30.43,10.0,SE,10.4,-,N/A,,Clear,130,2014-01-24 15:14:00
8:34 AM,5.0,-7.6,56,30.42,10.0,SE,6.9,-,N/A,,Clear,130,2014-01-24 15:34:00
8:55 AM,1.4,-9.4,61,30.43,10.0,ESE,5.8,-,N/A,,Clear,120,2014-01-24 15:55:00
9:15 AM,10.4,-4.0,52,30.44,10.0,Calm,Calm,-,N/A,,Clear,0,2014-01-24 16:15:00
9:34 AM,12.2,-2.2,53,30.44,10.0,SE,9.2,-,N/A,,Clear,140,2014-01-24 16:34:00
9:55 AM,15.8,-2.2,45,30.44,10.0,South,10.4,-,N/A,,Clear,180,2014-01-24 16:55:00
10:14 AM,14.0,-0.4,53,30.44,10.0,South,5.8,-,N/A,,Scattered Clouds,180,2014-01-24 17:14:00
10:35 AM,10.4,-0.4,62,30.44,10.0,Calm,Calm,-,N/A,,Scattered Clouds,0,2014-01-24 17:35:00
10:55 AM,12.2,-0.4,57,30.44,10.0,Calm,Calm,-,N/A,,Clear,0,2014-01-24 17:55:00
11:14 AM,15.8,-0.4,49,30.44,10.0,South,5.8,-,N/A,,Scattered Clouds,180,2014-01-24 18:14:00
11:35 AM,21.2,1.4,42,30.43,10.0,SSW,5.8,-,N/A,,Clear,200,2014-01-24 18:35:00
11:55 AM,21.2,1.4,42,30.42,10.0,SSW,6.9,-,N/A,,Clear,210,2014-01-24 18:55:00
12:15 PM,23.0,5.0,46,30.40,10.0,SW,8.1,-,N/A,,Clear,220,2014-01-24 19:15:00
12:35 PM,23.0,5.0,46,30.40,10.0,South,4.6,-,N/A,,Clear,190,2014-01-24 19:35:00
12:55 PM,26.6,6.8,43,30.38,10.0,SSW,6.9,-,N/A,,Clear,210,2014-01-24 19:55:00
1:15 PM,28.4,6.8,40,30.37,10.0,SSW,10.4,-,N/A,,Clear,200,2014-01-24 20:15:00
1:35 PM,26.6,6.8,43,30.36,10.0,SW,8.1,-,N/A,,Clear,220,2014-01-24 20:35:00
1:54 PM,30.2,5.0,34,30.36,10.0,SSW,10.4,-,N/A,,Clear,200,2014-01-24 20:54:00
2:15 PM,28.4,6.8,40,30.36,10.0,WSW,6.9,-,N/A,,Clear,240,2014-01-24 21:15:00
2:34 PM,30.2,3.2,32,30.35,10.0,South,10.4,18.4,N/A,,Clear,190,2014-01-24 21:34:00
2:55 PM,30.2,3.2,32,30.35,10.0,South,15.0,20.7,N/A,,Clear,190,2014-01-24 21:55:00
3:14 PM,30.2,3.2,32,30.35,10.0,South,10.4,17.3,N/A,,Clear,180,2014-01-24 22:14:00
3:35 PM,30.2,1.4,29,30.35,10.0,South,10.4,19.6,N/A,,Clear,190,2014-01-24 22:35:00
3:55 PM,30.2,3.2,32,30.35,10.0,South,11.5,-,N/A,,Clear,190,2014-01-24 22:55:00
4:15 PM,30.2,5.0,34,30.35,10.0,South,11.5,17.3,N/A,,Clear,180,2014-01-24 23:15:00
4:35 PM,28.4,3.2,34,30.35,10.0,South,12.7,16.1,N/A,,Clear,190,2014-01-24 23:35:00
4:55 PM,26.6,1.4,34,30.34,10.0,South,11.5,17.3,N/A,,Clear,190,2014-01-24 23:55:00
5:14 PM,24.8,1.4,36,30.35,10.0,South,9.2,17.3,N/A,,Clear,180,2014-01-25 00:14:00
5:35 PM,26.6,-0.4,31,30.35,10.0,South,9.2,16.1,N/A,,Clear,190,2014-01-25 00:35:00
5:55 PM,23.0,1.4,39,30.35,10.0,South,10.4,-,N/A,,Clear,180,2014-01-25 00:55:00
6:15 PM,23.0,1.4,39,30.36,10.0,South,6.9,-,N/A,,Clear,190,2014-01-25 01:15:00
6:35 PM,21.2,-0.4,39,30.36,10.0,South,6.9,-,N/A,,Clear,190,2014-01-25 01:35:00
6:55 PM,21.2,-0.4,39,30.36,10.0,South,6.9,-,N/A,,Clear,190,2014-01-25 01:55:00
7:15 PM,21.2,-0.4,39,30.36,7.0,SSE,6.9,-,N/A,,Clear,160,2014-01-25 02:15:00
7:35 PM,21.2,-0.4,39,30.36,7.0,SSE,9.2,-,N/A,,Clear,160,2014-01-25 02:35:00
7:55 PM,19.4,-0.4,42,30.37,10.0,ESE,5.8,16.1,N/A,,Clear,110,2014-01-25 02:55:00
8:15 PM,17.6,1.4,49,30.37,10.0,East,4.6,-,N/A,,Clear,80,2014-01-25 03:15:00
8:34 PM,17.6,1.4,49,30.36,10.0,SSE,15.0,-,N/A,,Clear,160,2014-01-25 03:34:00
8:55 PM,19.4,1.4,46,30.37,10.0,SSE,9.2,-,N/A,,Clear,160,2014-01-25 03:55:00
9:15 PM,17.6,1.4,49,30.37,10.0,ESE,9.2,-,N/A,,Clear,110,2014-01-25 04:15:00
9:34 PM,17.6,1.4,49,30.37,10.0,ESE,6.9,-,N/A,,Clear,110,2014-01-25 04:34:00
9:55 PM,15.8,1.4,53,30.37,10.0,SE,6.9,-,N/A,,Clear,130,2014-01-25 04:55:00
10:15 PM,17.6,1.4,49,30.38,10.0,SE,8.1,-,N/A,,Clear,130,2014-01-25 05:15:00
10:35 PM,17.6,-0.4,45,30.37,10.0,ESE,9.2,-,N/A,,Clear,120,2014-01-25 05:35:00
10:54 PM,15.8,-0.4,49,30.38,10.0,ESE,8.1,-,N/A,,Clear,110,2014-01-25 05:54:00
11:15 PM,17.6,-0.4,45,30.37,10.0,ESE,9.2,-,N/A,,Clear,120,2014-01-25 06:15:00
11:35 PM,15.8,-0.4,49,30.36,10.0,SE,8.1,-,N/A,,Clear,130,2014-01-25 06:35:00
11:55 PM,19.4,-0.4,42,30.36,10.0,SE,9.2,-,N/A,,Clear,140,2014-01-25 06:55:00